NOZ783 ENZV-ENKB

Flight info

Callsign NOZ783
Flight time 1h 5m
Altitude 33000
Route GEDLU DCT TUMIM
Aircraft B38M/M-SDE1FGHILORVWXY/HB1

Departure

Time 2026-04-20 23:05
Airport Stavanger Airport, Sola (ENZV)

Arrival

Time 2026-04-21 00:11
Airport Kristiansund Airport, Kvernberget (ENKB)
Time Latitude Longitude Altitude Speed Heading
2026-04-20 22:29 58.88317 5.63086 27 ft 0 kts 254°
2026-04-20 22:57 58.88323 5.63128 27 ft 4 kts 254°
2026-04-20 22:57 58.88331 5.63178 29 ft 4 kts 253°
2026-04-20 22:57 58.88335 5.63208 30 ft 1 kts 253°
2026-04-20 22:59 58.88335 5.63207 30 ft 1 kts 249°
2026-04-20 22:59 58.88322 5.63192 29 ft 3 kts 190°
2026-04-20 23:00 58.88279 5.63216 30 ft 5 kts 142°
2026-04-20 23:00 58.88266 5.63275 32 ft 6 kts 87°
2026-04-20 23:00 58.88246 5.63384 34 ft 14 kts 139°
2026-04-20 23:00 58.88101 5.63427 33 ft 29 kts 176°
2026-04-20 23:01 58.87929 5.63356 34 ft 22 kts 200°
2026-04-20 23:01 58.87872 5.63311 33 ft 0 kts 197°
2026-04-20 23:02 58.87868 5.63310 34 ft 2 kts 189°
2026-04-20 23:03 58.87826 5.63300 34 ft 10 kts 185°
2026-04-20 23:03 58.87744 5.63377 34 ft 18 kts 119°
2026-04-20 23:03 58.87693 5.63695 36 ft 31 kts 107°
2026-04-20 23:03 58.87620 5.64152 36 ft 40 kts 107°
2026-04-20 23:04 58.87556 5.64485 38 ft 10 kts 120°
2026-04-20 23:04 58.87558 5.64497 38 ft 1 kts 42°
2026-04-20 23:04 58.87570 5.64469 36 ft 7 kts 301°
2026-04-20 23:04 58.87595 5.64349 36 ft 11 kts 283°
2026-04-20 23:05 58.87628 5.64124 37 ft 45 kts 288°
2026-04-20 23:05 58.87806 5.62950 31 ft 133 kts 286°
2026-04-20 23:05 58.88111 5.60914 391 ft 167 kts 285°
2026-04-20 23:05 58.88443 5.58647 1102 ft 181 kts 288°
2026-04-20 23:06 58.88776 5.56356 2133 ft 180 kts 285°
2026-04-20 23:06 58.89115 5.53771 2286 ft 214 kts 287°
2026-04-20 23:06 58.89576 5.50790 2665 ft 246 kts 288°
2026-04-20 23:06 58.90242 5.47828 3818 ft 241 kts 309°
2026-04-20 23:07 58.91594 5.45953 4833 ft 243 kts 342°
2026-04-20 23:07 58.93320 5.45541 5330 ft 258 kts
2026-04-20 23:07 58.94996 5.46753 5457 ft 264 kts 37°
2026-04-20 23:07 58.96168 5.49444 6272 ft 261 kts 66°
2026-04-20 23:08 58.96558 5.52731 7361 ft 261 kts 86°
2026-04-20 23:08 58.96745 5.56333 8363 ft 267 kts 84°
2026-04-20 23:08 58.96966 5.59922 9390 ft 270 kts 83°
2026-04-20 23:08 58.97529 5.63402 10395 ft 275 kts 59°
2026-04-20 23:09 58.98857 5.66134 11153 ft 289 kts 35°
2026-04-20 23:09 59.00787 5.67644 11622 ft 313 kts 11°
2026-04-20 23:09 59.02255 5.67749 11970 ft 326 kts 358°
2026-04-20 23:09 59.05374 5.67505 12748 ft 344 kts
2026-04-20 23:10 59.06975 5.67414 13248 ft 348 kts
2026-04-20 23:10 59.09401 5.67284 14192 ft 351 kts
2026-04-20 23:10 59.11858 5.67156 14970 ft 355 kts
2026-04-20 23:10 59.14342 5.67027 15768 ft 359 kts
2026-04-20 23:11 59.16853 5.66897 16559 ft 363 kts
2026-04-20 23:11 59.19392 5.66766 17317 ft 367 kts
2026-04-20 23:11 59.21959 5.66634 18063 ft 371 kts
2026-04-20 23:11 59.24554 5.66500 18813 ft 375 kts
2026-04-20 23:12 59.27175 5.66363 19469 ft 378 kts
2026-04-20 23:12 59.29812 5.66226 20142 ft 381 kts
2026-04-20 23:12 59.32474 5.66088 20765 ft 384 kts
2026-04-20 23:12 59.35152 5.65949 21426 ft 386 kts
2026-04-20 23:13 59.37849 5.65807 22067 ft 389 kts
2026-04-20 23:13 59.40568 5.65666 22694 ft 392 kts
2026-04-20 23:13 59.43305 5.65333 23305 ft 396 kts 357°
2026-04-20 23:13 59.46060 5.64865 23912 ft 399 kts 358°
2026-04-20 23:14 59.48834 5.64415 24423 ft 402 kts 357°
2026-04-20 23:14 59.51624 5.63971 24936 ft 404 kts 357°
2026-04-20 23:14 59.54439 5.63527 25379 ft 408 kts 357°
2026-04-20 23:14 59.57279 5.63079 25846 ft 411 kts 357°
2026-04-20 23:15 59.60144 5.62626 26295 ft 415 kts 357°
2026-04-20 23:15 59.63032 5.62169 26737 ft 418 kts 357°
2026-04-20 23:15 59.65942 5.61702 27170 ft 421 kts 357°
2026-04-20 23:15 59.68875 5.61217 27599 ft 425 kts 357°
2026-04-20 23:16 59.71829 5.60728 28012 ft 428 kts 357°
2026-04-20 23:16 59.74810 5.60235 28408 ft 431 kts 357°
2026-04-20 23:16 59.77810 5.59738 28814 ft 434 kts 356°
2026-04-20 23:16 59.80833 5.59277 29223 ft 437 kts 360°
2026-04-20 23:17 59.83872 5.59648 29591 ft 438 kts
2026-04-20 23:17 59.86920 5.60160 29969 ft 442 kts
2026-04-20 23:17 59.89995 5.60662 30343 ft 445 kts
2026-04-20 23:17 59.93095 5.61173 30692 ft 448 kts
2026-04-20 23:18 59.96210 5.61689 31011 ft 451 kts
2026-04-20 23:18 59.99302 5.62201 31315 ft 453 kts
2026-04-20 23:18 60.02448 5.62724 31643 ft 455 kts
2026-04-20 23:18 60.05610 5.63250 32020 ft 456 kts
2026-04-20 23:19 60.08773 5.63777 32450 ft 455 kts
2026-04-20 23:19 60.11929 5.64305 32880 ft 455 kts
2026-04-20 23:19 60.15072 5.64831 33305 ft 454 kts
2026-04-20 23:19 60.18235 5.65361 33544 ft 456 kts
2026-04-20 23:20 60.24533 5.66421 33538 ft 453 kts
2026-04-20 23:20 60.30810 5.67480 33531 ft 453 kts
2026-04-20 23:21 60.37091 5.68544 33530 ft 453 kts
2026-04-20 23:21 60.43379 5.69615 33533 ft 453 kts
2026-04-20 23:22 60.49671 5.70690 33536 ft 453 kts
2026-04-20 23:22 60.55955 5.71767 33534 ft 453 kts
2026-04-20 23:23 60.62244 5.72850 33534 ft 453 kts
2026-04-20 23:23 60.68532 5.73937 33543 ft 454 kts
2026-04-20 23:24 60.74838 5.75032 33543 ft 454 kts
2026-04-20 23:24 60.81137 5.76129 33539 ft 454 kts
2026-04-20 23:25 60.87430 5.77228 33536 ft 454 kts
2026-04-20 23:25 60.93735 5.78336 33533 ft 454 kts
2026-04-20 23:26 61.00031 5.79460 33436 ft 454 kts
2026-04-20 23:26 61.06332 5.80562 33546 ft 455 kts
2026-04-20 23:27 61.12638 5.81683 33533 ft 455 kts
2026-04-20 23:27 61.18943 5.82807 33535 ft 455 kts
2026-04-20 23:28 61.25196 5.83408 33059 ft 445 kts 352°
2026-04-20 23:28 61.27743 5.81787 31153 ft 463 kts 335°
2026-04-20 23:28 61.30818 5.79277 29789 ft 474 kts 344°
2026-04-20 23:29 61.33965 5.77859 30003 ft 449 kts 352°
2026-04-20 23:29 61.36993 5.77276 30191 ft 429 kts 355°
2026-04-20 23:29 61.39943 5.76709 29681 ft 423 kts 352°
2026-04-20 23:29 61.42878 5.75958 28582 ft 431 kts 353°
2026-04-20 23:30 61.45899 5.75394 27522 ft 438 kts 355°
2026-04-20 23:30 61.48945 5.75716 26731 ft 446 kts 12°
2026-04-20 23:30 61.51909 5.77800 26906 ft 453 kts 19°
2026-04-20 23:30 61.54913 5.79949 27224 ft 458 kts 18°
2026-04-20 23:31 61.57939 5.82099 27767 ft 458 kts 18°
2026-04-20 23:31 61.60957 5.84251 28263 ft 459 kts 18°
2026-04-20 23:31 61.63991 5.86420 28774 ft 460 kts 19°
2026-04-20 23:31 61.67021 5.88590 29281 ft 460 kts 19°
2026-04-20 23:32 61.70049 5.90774 29784 ft 461 kts 20°
2026-04-20 23:32 61.72899 5.93844 30272 ft 461 kts 36°
2026-04-20 23:32 61.75380 5.98117 30758 ft 460 kts 40°
2026-04-20 23:32 61.77842 6.02478 30951 ft 465 kts 41°
2026-04-20 23:33 61.80285 6.06950 31069 ft 464 kts 42°
2026-04-20 23:33 61.82712 6.11455 31489 ft 463 kts 42°
2026-04-20 23:33 61.85122 6.15954 31986 ft 461 kts 42°
2026-04-20 23:33 61.87519 6.20439 32486 ft 459 kts 42°
2026-04-20 23:34 61.89903 6.24913 32947 ft 457 kts 42°
2026-04-20 23:34 61.92249 6.29324 33366 ft 456 kts 42°
2026-04-20 23:34 61.94611 6.33777 32758 ft 453 kts 42°
2026-04-20 23:34 61.97007 6.38301 31748 ft 457 kts 42°
2026-04-20 23:35 61.99398 6.42828 30762 ft 463 kts 42°
2026-04-20 23:35 62.04180 6.51907 28939 ft 463 kts 42°
2026-04-20 23:35 62.06566 6.56452 28329 ft 458 kts 42°
2026-04-20 23:36 62.08930 6.60968 27648 ft 454 kts 42°
2026-04-20 23:36 62.11270 6.65446 26989 ft 450 kts 42°
2026-04-20 23:36 62.13589 6.69894 26320 ft 447 kts 42°
2026-04-20 23:36 62.15898 6.74329 25670 ft 445 kts 42°
2026-04-20 23:37 62.18197 6.78757 25000 ft 443 kts 42°
2026-04-20 23:37 62.20475 6.83154 24357 ft 441 kts 42°
2026-04-20 23:37 62.22749 6.87552 23620 ft 439 kts 42°
2026-04-20 23:37 62.25007 6.91925 22929 ft 436 kts 42°
2026-04-20 23:38 62.27243 6.96288 22251 ft 433 kts 42°
2026-04-20 23:38 62.29450 7.00669 21538 ft 431 kts 42°
2026-04-20 23:38 62.31667 7.05066 21001 ft 425 kts 42°
2026-04-20 23:38 62.33801 7.09304 20401 ft 422 kts 42°
2026-04-20 23:39 62.35948 7.13579 19795 ft 420 kts 43°
2026-04-20 23:39 62.38087 7.17842 19195 ft 417 kts 43°
2026-04-20 23:39 62.40213 7.22092 18558 ft 416 kts 43°
2026-04-20 23:39 62.42327 7.26324 17913 ft 413 kts 43°
2026-04-20 23:40 62.44424 7.30531 17314 ft 410 kts 43°
2026-04-20 23:40 62.46499 7.34702 16735 ft 406 kts 43°
2026-04-20 23:40 62.48557 7.38848 16176 ft 402 kts 43°
2026-04-20 23:40 62.50590 7.42950 15614 ft 398 kts 43°
2026-04-20 23:41 62.52609 7.47033 15076 ft 395 kts 43°
2026-04-20 23:41 62.54608 7.51081 14544 ft 392 kts 43°
2026-04-20 23:41 62.56590 7.55105 13974 ft 389 kts 43°
2026-04-20 23:41 62.58555 7.59100 13415 ft 385 kts 43°
2026-04-20 23:42 62.60502 7.63066 12888 ft 382 kts 43°
2026-04-20 23:42 62.62422 7.66987 12400 ft 377 kts 43°
2026-04-20 23:42 62.64317 7.70863 12064 ft 369 kts 43°
2026-04-20 23:42 62.66155 7.74629 11902 ft 357 kts 43°
2026-04-20 23:43 62.67929 7.78270 11721 ft 345 kts 43°
2026-04-20 23:43 62.69649 7.81806 11544 ft 335 kts 43°
2026-04-20 23:43 62.71318 7.85241 11362 ft 325 kts 43°
2026-04-20 23:43 62.72939 7.88581 11218 ft 316 kts 43°
2026-04-20 23:44 62.74602 7.91593 11036 ft 306 kts 33°
2026-04-20 23:44 62.76347 7.94123 10896 ft 297 kts 33°
2026-04-20 23:44 62.78031 7.96631 10764 ft 288 kts 34°
2026-04-20 23:44 62.79654 7.99081 10628 ft 279 kts 34°
2026-04-20 23:45 62.81228 8.01482 10437 ft 274 kts 34°
2026-04-20 23:45 62.82782 8.03868 10114 ft 272 kts 34°
2026-04-20 23:45 62.84326 8.06250 9793 ft 271 kts 34°
2026-04-20 23:45 62.85857 8.08614 9504 ft 268 kts 35°
2026-04-20 23:46 62.87371 8.10961 9218 ft 265 kts 35°
2026-04-20 23:46 62.88869 8.13288 8941 ft 263 kts 35°
2026-04-20 23:46 62.90355 8.15599 8665 ft 260 kts 35°
2026-04-20 23:46 62.91824 8.17885 8383 ft 258 kts 34°
2026-04-20 23:47 62.93285 8.20161 8109 ft 256 kts 35°
2026-04-20 23:47 62.94744 8.22437 7846 ft 260 kts 34°
2026-04-20 23:47 62.96237 8.24770 7566 ft 265 kts 34°
2026-04-20 23:47 62.97741 8.27122 7288 ft 267 kts 34°
2026-04-20 23:48 62.99267 8.29512 6796 ft 271 kts 34°
2026-04-20 23:48 63.00804 8.31922 6234 ft 270 kts 34°
2026-04-20 23:48 63.02354 8.34123 5851 ft 261 kts 24°
2026-04-20 23:48 63.03992 8.35629 5518 ft 251 kts 21°
2026-04-20 23:49 63.05580 8.37058 5269 ft 240 kts 21°
2026-04-20 23:49 63.07100 8.38440 5155 ft 238 kts 21°
2026-04-20 23:49 63.08665 8.39623 4985 ft 236 kts
2026-04-20 23:49 63.10250 8.39189 4619 ft 229 kts 336°
2026-04-20 23:50 63.11640 8.37498 4410 ft 224 kts 328°
2026-04-20 23:50 63.12938 8.35753 4371 ft 215 kts 327°
2026-04-20 23:50 63.14197 8.34006 4325 ft 215 kts 326°
2026-04-20 23:50 63.15427 8.31999 4263 ft 222 kts 309°
2026-04-20 23:51 63.16072 8.28993 4099 ft 215 kts 276°
2026-04-20 23:51 63.15963 8.25774 3948 ft 207 kts 257°
2026-04-20 23:51 63.15668 8.22719 3797 ft 200 kts 257°
2026-04-20 23:51 63.15374 8.19770 3657 ft 193 kts 257°
2026-04-20 23:52 63.15083 8.16933 3579 ft 185 kts 256°
2026-04-20 23:52 63.14793 8.14162 3378 ft 186 kts 256°
2026-04-20 23:52 63.14496 8.11354 3061 ft 188 kts 256°
2026-04-20 23:52 63.14202 8.08610 2979 ft 180 kts 256°
2026-04-20 23:53 63.13914 8.05940 2995 ft 176 kts 256°
2026-04-20 23:53 63.13632 8.03333 3074 ft 173 kts 256°
2026-04-20 23:53 63.13357 8.00802 2870 ft 168 kts 256°
2026-04-20 23:53 63.13080 7.98272 2477 ft 171 kts 255°
2026-04-20 23:54 63.12800 7.95703 2055 ft 173 kts 256°
2026-04-20 23:54 63.12453 7.93013 2270 ft 185 kts 251°
2026-04-20 23:54 63.12131 7.90303 3223 ft 189 kts 256°
2026-04-20 23:54 63.11817 7.87308 3578 ft 208 kts 257°
2026-04-20 23:55 63.11490 7.84148 3437 ft 217 kts 257°
2026-04-20 23:55 63.11148 7.80856 3840 ft 224 kts 257°
2026-04-20 23:55 63.10911 7.78589 4413 ft 225 kts 257°
2026-04-20 23:55 63.10433 7.74118 4880 ft 226 kts 256°
2026-04-20 23:56 63.10186 7.71830 4965 ft 226 kts 257°
2026-04-20 23:56 63.09820 7.68452 4992 ft 226 kts 256°
2026-04-20 23:56 63.09454 7.65080 4994 ft 226 kts 256°
2026-04-20 23:56 63.09091 7.61747 5015 ft 227 kts 257°
2026-04-20 23:57 63.09059 7.58188 4984 ft 239 kts 288°
2026-04-20 23:57 63.10022 7.55204 4980 ft 252 kts 323°
2026-04-20 23:57 63.11673 7.53920 5007 ft 258 kts 354°
2026-04-20 23:57 63.13473 7.54285 4998 ft 264 kts 15°
2026-04-20 23:58 63.15214 7.55627 5002 ft 266 kts 15°
2026-04-20 23:58 63.16991 7.56754 4996 ft 266 kts 15°
2026-04-20 23:58 63.18773 7.57901 4991 ft 266 kts 15°
2026-04-20 23:58 63.20554 7.59063 4996 ft 267 kts 15°
2026-04-20 23:59 63.22330 7.60233 4996 ft 267 kts 15°
2026-04-20 23:59 63.24109 7.61412 5002 ft 267 kts 15°
2026-04-20 23:59 63.25888 7.62595 4998 ft 267 kts 15°
2026-04-20 23:59 63.27666 7.63780 4997 ft 267 kts 15°
2026-04-21 00:00 63.29444 7.64967 4990 ft 267 kts 15°
2026-04-21 00:00 63.31184 7.66387 4974 ft 268 kts 29°
2026-04-21 00:00 63.32658 7.68921 5018 ft 270 kts 40°
2026-04-21 00:00 63.34056 7.71724 4987 ft 270 kts 40°
2026-04-21 00:01 63.35464 7.74500 4986 ft 270 kts 39°
2026-04-21 00:01 63.37067 7.76534 4969 ft 265 kts 13°
2026-04-21 00:01 63.38866 7.77493 4976 ft 268 kts 19°
2026-04-21 00:01 63.40315 7.79995 4934 ft 268 kts 55°
2026-04-21 00:02 63.40882 7.83920 4959 ft 270 kts 90°
2026-04-21 00:02 63.40379 7.87885 4965 ft 269 kts 125°
2026-04-21 00:02 63.39054 7.90769 5007 ft 268 kts 144°
2026-04-21 00:02 63.37762 7.93756 4972 ft 269 kts 126°
2026-04-21 00:03 63.36684 7.97184 4994 ft 271 kts 127°
2026-04-21 00:03 63.35585 8.00579 4985 ft 270 kts 127°
2026-04-21 00:03 63.34477 8.03961 4990 ft 271 kts 127°
2026-04-21 00:03 63.33361 8.07345 4984 ft 271 kts 128°
2026-04-21 00:04 63.32240 8.10717 4989 ft 271 kts 128°
2026-04-21 00:04 63.31118 8.14084 4988 ft 271 kts 127°
2026-04-21 00:04 63.29994 8.17445 4990 ft 271 kts 128°
2026-04-21 00:04 63.28870 8.20802 4990 ft 270 kts 128°
2026-04-21 00:05 63.27747 8.24144 4992 ft 270 kts 128°
2026-04-21 00:05 63.26624 8.27488 4994 ft 271 kts 128°
2026-04-21 00:05 63.25402 8.30640 4970 ft 268 kts 145°
2026-04-21 00:05 63.23712 8.32172 4982 ft 262 kts 176°
2026-04-21 00:06 63.21926 8.31965 4950 ft 263 kts 189°
2026-04-21 00:06 63.20111 8.31517 4819 ft 261 kts 188°
2026-04-21 00:06 63.18312 8.31014 4622 ft 260 kts 195°
2026-04-21 00:06 63.16775 8.29048 4205 ft 258 kts 230°
2026-04-21 00:07 63.16010 8.25548 3957 ft 253 kts 257°
2026-04-21 00:07 63.15633 8.21807 3797 ft 243 kts 256°
2026-04-21 00:07 63.15260 8.18337 3724 ft 219 kts 256°
2026-04-21 00:07 63.14923 8.15207 3537 ft 202 kts 256°
2026-04-21 00:08 63.14602 8.12236 3162 ft 196 kts 256°
2026-04-21 00:08 63.14287 8.09331 2778 ft 192 kts 256°
2026-04-21 00:08 63.13979 8.06521 2457 ft 182 kts 255°
2026-04-21 00:08 63.13702 8.03985 2255 ft 159 kts 255°
2026-04-21 00:09 63.13457 8.01731 2040 ft 146 kts 255°
2026-04-21 00:09 63.13217 7.99552 1830 ft 145 kts 254°
2026-04-21 00:09 63.12990 7.97379 1607 ft 145 kts 258°
2026-04-21 00:09 63.12845 7.95174 1382 ft 145 kts 259°
2026-04-21 00:10 63.12627 7.93014 1125 ft 144 kts 255°
2026-04-21 00:10 63.12391 7.90887 850 ft 142 kts 254°
2026-04-21 00:10 63.12131 7.88791 634 ft 141 kts 253°
2026-04-21 00:10 63.11839 7.86735 387 ft 139 kts 252°
2026-04-21 00:11 63.11526 7.84708 234 ft 138 kts 250°
2026-04-21 00:11 63.11260 7.82927 218 ft 98 kts 252°
2026-04-21 00:11 63.11111 7.81968 218 ft 34 kts 253°
2026-04-21 00:11 63.11087 7.81726 217 ft 14 kts 258°
2026-04-21 00:12 63.11067 7.81685 220 ft 3 kts 155°
2026-04-21 00:12 63.11070 7.81761 217 ft 11 kts 70°
2026-04-21 00:12 63.11124 7.82017 213 ft 23 kts 70°
2026-04-21 00:12 63.11172 7.82374 212 ft 25 kts 72°
2026-04-21 00:13 63.11249 7.82575 217 ft 10 kts 11°
2026-04-21 00:13 63.11265 7.82575 216 ft 4 kts 357°
2026-04-21 00:13 63.11303 7.82564 218 ft 4 kts 346°
2026-04-21 00:13 63.11325 7.82551 217 ft 1 kts 341°
2026-04-21 00:14 63.11338 7.82539 212 ft 0 kts 338°
2026-04-21 00:14 63.11340 7.82538 212 ft 0 kts 338°